Weather History for Anchialos, Greece

Change the Weather History Date:

Thursday, January 10, 2013

  Actual Average Record
Temperature  
Mean Temperature 38 °F -  
Max Temperature 50 °F - - ()
Min Temperature 26 °F - - ()
Degree Days  
Heating Degree Days 27    
Moisture  
Dew Point 25 °F    
Average Humidity 60    
Maximum Humidity 74    
Minimum Humidity 40    
Precipitation  
Precipitation 0.00 in - - ()
Sea Level Pressure  
Sea Level Pressure 30.11 in    
Wind  
Wind Speed 5 mph ()    
Max Wind Speed 9 mph    
Max Gust Speed -    
Visibility 6.2 miles    
Events      
T = Trace of Precipitation, MM = Missing Value Source: Averaged Metar Reports

Daily Weather History Graph

Daily Weather History Graph

Search for Another Location

Airport:

Trip Planner

Search our weather history database for the weather conditions in past years. The results will help you decide how hot, cold, wet, or windy it might be!

Date:

Astronomy

Jan. 10, 2013 Rise Set
Actual Time 7:48 AM EET 5:24 PM EET
Civil Twilight 7:18 AM EET 5:54 PM EET
Nautical Twilight 6:45 AM EET 6:27 PM EET
Astronomical Twilight 6:13 AM EET 7:00 PM EET
Moon 6:09 AM EET (1/10) 4:11 PM EET (1/10)
Length of Visible Light 10h 36m
Length of Day
9h 36m
Waning Crescent, 3% of the Moon is Illuminated
Jan 10
Waning Crescent
Jan 11
New
Jan 19
First Quarter
Jan 27
Full
Feb 3
Last Quarter

Hourly Weather History & Observations

Time (EET) Temp. Windchill Dew Point Humidity Pressure Visibility Wind Dir Wind Speed Gust Speed Precip Events Conditions
1:50 AM 33.8 °F 30.8 °F 21.2 °F 60% 30.21 in 6.2 mi West 3.5 mph - N/A   Mostly Cloudy
3:50 AM 30.2 °F 24.3 °F 19.4 °F 64% 30.21 in 6.2 mi West 5.8 mph - N/A   Scattered Clouds
4:50 AM 28.4 °F 22.2 °F 21.2 °F 74% 30.21 in 6.2 mi West 5.8 mph - N/A   Scattered Clouds
5:20 AM 28.4 °F 22.2 °F 21.2 °F 74% 30.21 in 6.2 mi West 5.8 mph - N/A   Scattered Clouds
5:50 AM 28.4 °F 22.2 °F 21.2 °F 74% 30.18 in 6.2 mi West 5.8 mph - N/A   Scattered Clouds
6:20 AM 28.4 °F 22.2 °F 21.2 °F 74% 30.18 in 6.2 mi West 5.8 mph - N/A   Scattered Clouds
6:50 AM 28.4 °F 20.4 °F 19.4 °F 69% 30.18 in 6.2 mi West 8.1 mph - N/A   Partly Cloudy
7:20 AM 28.4 °F 21.2 °F 19.4 °F 69% 30.21 in 6.2 mi WSW 6.9 mph - N/A   Partly Cloudy
7:50 AM 26.6 °F 19.1 °F 19.4 °F 74% 30.21 in 6.2 mi West 6.9 mph - N/A   Partly Cloudy
8:20 AM 28.4 °F 21.2 °F 19.4 °F 69% 30.21 in 6.2 mi West 6.9 mph - N/A   Partly Cloudy
8:50 AM 30.2 °F 22.6 °F 21.2 °F 69% 30.21 in 6.2 mi West 8.1 mph - N/A   Partly Cloudy
9:20 AM 33.8 °F 27.7 °F 23.0 °F 65% 30.21 in 6.2 mi West 6.9 mph - N/A   Partly Cloudy
9:50 AM 37.4 °F 32.8 °F 23.0 °F 56% 30.18 in 6.2 mi West 5.8 mph - N/A   Partly Cloudy
10:20 AM 39.2 °F 33.6 °F 23.0 °F 52% 30.18 in 6.2 mi WNW 8.1 mph - N/A   Partly Cloudy
10:50 AM 41.0 °F 35.2 °F 23.0 °F 49% 30.18 in - WNW 9.2 mph - N/A   Clear
11:20 AM 39.2 °F 33.6 °F 23.0 °F 52% 30.15 in - WNW 8.1 mph - N/A   Clear
11:50 AM 44.6 °F 42.2 °F 23.0 °F 43% 30.15 in - WNW 4.6 mph - N/A   Clear
12:20 PM 46.4 °F - 23.0 °F 40% 30.12 in - Calm Calm - N/A   Clear
12:50 PM 50.0 °F - 26.6 °F 40% 30.09 in - NE 4.6 mph - N/A   Clear
1:20 PM 46.4 °F 44.3 °F 26.6 °F 46% 30.09 in - East 4.6 mph - N/A   Clear
1:50 PM 46.4 °F 44.3 °F 26.6 °F 46% 30.06 in - NE 4.6 mph - N/A   Clear
2:20 PM 48.2 °F - 26.6 °F 43% 30.06 in - East 4.6 mph - N/A   Clear
2:50 PM 48.2 °F - 28.4 °F 46% 30.06 in - ENE 4.6 mph - N/A   Clear
3:20 PM 48.2 °F - 28.4 °F 46% 30.06 in - ENE 4.6 mph - N/A   Clear
3:50 PM 48.2 °F - 28.4 °F 46% 30.04 in - Calm Calm - N/A   Clear
4:20 PM 48.2 °F - 28.4 °F 46% 30.04 in - Calm Calm - N/A   Clear
4:50 PM 48.2 °F - 32.0 °F 54% 30.04 in - Calm Calm - N/A   Clear
5:20 PM 44.6 °F - 32.0 °F 61% 30.04 in - Calm Calm - N/A   Clear
5:50 PM 42.8 °F - 30.2 °F 61% 30.04 in - Calm Calm - N/A   Clear
6:20 PM 39.2 °F 35.9 °F 30.2 °F 70% 30.04 in - West 4.6 mph - N/A   Clear
6:50 PM 39.2 °F 35.0 °F 30.2 °F 70% 30.04 in - West 5.8 mph - N/A   Clear
7:50 PM 41.0 °F 37.1 °F 30.2 °F 65% 30.04 in - WSW 5.8 mph - N/A   Clear
8:50 PM 41.0 °F 38.0 °F 30.2 °F 65% 30.01 in - West 4.6 mph - N/A   Clear
9:50 PM 41.0 °F 38.0 °F 32.0 °F 70% 30.01 in - SW 4.6 mph - N/A   Clear
10:50 PM 41.0 °F - 32.0 °F 70% 29.98 in 6.2 mi Calm Calm - N/A   Mostly Cloudy
11:50 PM 41.0 °F - 32.0 °F 70% 29.98 in 6.2 mi Calm Calm - N/A   Mostly Cloudy